Regional Weather Roundup
Issued by NWS

Home | Current Version | Previous Version | Text Only | Print | Product List | Glossary Off
Versions: 1 2 3 4 5 6 7 8 9 10 11 12 13 14 15 16 17 18 19 20 21 22 23 24 25 26 27 28 29 30 31 32 33 34 35 36 37 38 39 40 41 42 43 44 45 46 47 48 49 50

000
ASUS43 KOAX 070202
RWRNE

WEATHER ROUNDUP FOR NEBRASKA
NATIONAL WEATHER SERVICE OMAHA NE
800 PM CST SAT FEB 06 2016

NOTES: SATELLITE DATA IS BEING USED TO AUGMENT CLOUD COVER ABOVE
       12000 FEET.
       "FAIR" INDICATES FEW OR NO CLOUDS BELOW 12,000 FEET WITH NO
       SIGNIFICANT WEATHER AND/OR OBSTRUCTIONS TO VISIBILITY.

  * THESE STATIONS DO NOT REPORT WEATHER SUCH AS RAIN...SNOW OR FOG.

NEZ001>004-019>022-054>056-070300-
NEBRASKA PANHANDLE

CITY           SKY/WX    TMP DP  RH WIND       PRES   REMARKS
SCOTTSBLUFF    CLOUDY    41  23  48 W22G32    30.01R
ALLIANCE       CLOUDY    38  26  62 NW20      30.01R WCI  28
CHADRON        CLOUDY    38  27  64 W13       30.02R WCI  30
SIDNEY         CLOUDY    38  28  67 W15       30.00F WCI  29
$$

NEZ057>060-069>072-079>082-070300-
SOUTHWEST NEBRASKA

CITY           SKY/WX    TMP DP  RH WIND       PRES   REMARKS
NORTH PLATTE   CLOUDY    33  24  69 W9        29.98S WCI  25
IMPERIAL       CLOUDY    33  25  72 W13       30.01S WCI  24
MCCOOK         CLOUDY    37  25  61 SW13      30.01F WCI  29
$$

NEZ005>010-023>029-035>040-094-070300-
NORTH CENTRAL NEBRASKA

CITY           SKY/WX    TMP DP  RH WIND       PRES   REMARKS
VALENTINE      CLOUDY    37  29  72 W13       29.91R WCI  29
BROKEN BOW     CLOUDY    34  27  75 W12       29.94S WCI  25
ORD            CLOUDY    36  27  69 SW10      29.92S WCI  28
$$

NEZ041-046>049-061>064-073>077-083>087-070300-
SOUTH CENTRAL NEBRASKA

CITY           SKY/WX    TMP DP  RH WIND       PRES   REMARKS
GRAND ISLAND   CLOUDY    35  26  69 SW16      29.96F WCI  25
HASTINGS       PTCLDY    35  26  69 SW12      29.97F WCI  27
$$

NEZ011>018-030>034-042>045-070300-
NORTHEAST NEBRASKA

CITY           SKY/WX    TMP DP  RH WIND       PRES   REMARKS
NORFOLK        CLOUDY    35  28  75 SW12      29.90S WCI  27
COLUMBUS *     PTCLDY    34  19  55 SW12      29.96F WCI  25
TEKAMAH        CLOUDY    33  25  72 S14       29.97F WCI  23
$$

NEZ050>053-065>068-078-088>093-070300-
SOUTHEAST NEBRASKA

CITY           SKY/WX    TMP DP  RH WIND       PRES   REMARKS
LINCOLN        PTCLDY    36  26  67 SW12      30.00F WCI  28
OMAHA EPPLEY   CLOUDY    40  27  59 S9        29.99F WCI  34
FALLS CITY     CLEAR     40  27  59 S8        30.05F WCI  34
$$

NEZ044-045-051>053-067-070300-
OMAHA AREA

CITY           SKY/WX    TMP DP  RH WIND       PRES   REMARKS
OMAHA EPPLEY   CLOUDY    40  27  59 S9        29.99F WCI  34
OFFUTT AFB     PTCLDY    39  30  70 S10       29.98F WCI  32
$$



USA.gov is the U.S. government's official web portal to all federal, state and local government web resources and services.